Stündliche Wetter Ceglie Messapica

Heute, 31 Oktober, Samstag

Zeit Temperatur Niederschläge Wind Luftdruck Luftfeuchtigkeit
00:00 +14°C° 0 mm 5 m/S 742 mmHg 82%
01:00 +14°C° 0 mm 5 m/S 742 mmHg 82%
02:00 +14°C° 0 mm 4 m/S 741 mmHg 83%
03:00 +13°C° 0 mm 4 m/S 741 mmHg 83%
04:00 +13°C° 0 mm 4 m/S 741 mmHg 84%
05:00 +13°C° 0 mm 4 m/S 741 mmHg 82%
06:00 +13°C° 0 mm 4 m/S 741 mmHg 81%
07:00 +13°C° 0 mm 4 m/S 741 mmHg 78%
08:00 +15°C° 0 mm 4 m/S 741 mmHg 73%
09:00 +17°C° 0 mm 4 m/S 742 mmHg 67%
10:00 +18°C° 0 mm 4 m/S 742 mmHg 62%
11:00 +19°C° 0 mm 4 m/S 742 mmHg 60%
12:00 +19°C° 0 mm 4 m/S 742 mmHg 58%
13:00 +20°C° 0 mm 4 m/S 741 mmHg 56%
14:00 +19°C° 0 mm 4 m/S 741 mmHg 59%
15:00 +18°C° 0 mm 4 m/S 741 mmHg 63%
16:00 +18°C° 0 mm 4 m/S 740 mmHg 67%
17:00 +17°C° 0 mm 4 m/S 740 mmHg 71%
18:00 +15°C° 0 mm 4 m/S 740 mmHg 75%
19:00 +14°C° 0 mm 3 m/S 740 mmHg 80%
20:00 +14°C° 0 mm 3 m/S 740 mmHg 80%
21:00 +14°C° 0 mm 3 m/S 741 mmHg 81%
22:00 +14°C° 0 mm 3 m/S 741 mmHg 82%
23:00 +14°C° 0 mm 3 m/S 741 mmHg 82%

Morgen, 1 November, Sonntag

Zeit Temperatur Niederschläge Wind Luftdruck Luftfeuchtigkeit
00:00 +14°C° 0 mm 3 m/S 741 mmHg 82%
01:00 +13°C° 0 mm 3 m/S 741 mmHg 82%
02:00 +13°C° 0 mm 3 m/S 740 mmHg 83%
03:00 +13°C° 0 mm 3 m/S 740 mmHg 83%
04:00 +14°C° 0 mm 3 m/S 740 mmHg 84%
05:00 +13°C° 0 mm 3 m/S 740 mmHg 83%
06:00 +13°C° 0 mm 3 m/S 740 mmHg 82%
07:00 +13°C° 0 mm 3 m/S 740 mmHg 81%
08:00 +16°C° 0 mm 3 m/S 740 mmHg 77%
09:00 +17°C° 0 mm 3 m/S 741 mmHg 72%
10:00 +18°C° 0 mm 3 m/S 741 mmHg 67%
11:00 +19°C° 0 mm 3 m/S 741 mmHg 64%
12:00 +19°C° 0 mm 3 m/S 741 mmHg 60%
13:00 +20°C° 0 mm 3 m/S 741 mmHg 57%
14:00 +19°C° 0 mm 3 m/S 740 mmHg 60%
15:00 +19°C° 0 mm 2 m/S 740 mmHg 64%
16:00 +18°C° 0 mm 2 m/S 740 mmHg 67%
17:00 +17°C° 0 mm 2 m/S 740 mmHg 70%
18:00 +16°C° 0 mm 1 m/S 740 mmHg 73%
19:00 +16°C° 0 mm 1 m/S 740 mmHg 76%
20:00 +15°C° 0 mm 1 m/S 740 mmHg 75%
21:00 +15°C° 0 mm 1 m/S 741 mmHg 74%
22:00 +15°C° 0 mm 1 m/S 741 mmHg 73%
23:00 +15°C° 0 mm 1 m/S 741 mmHg 73%

übermorgen, 2 November, Montag

Zeit Temperatur Niederschläge Wind Luftdruck Luftfeuchtigkeit
00:00 +15°C° 0 mm 1 m/S 741 mmHg 72%
01:00 +15°C° 0 mm 1 m/S 741 mmHg 72%
02:00 +15°C° 0 mm 2 m/S 741 mmHg 74%
03:00 +15°C° 0 mm 2 m/S 741 mmHg 76%
04:00 +14°C° 0 mm 2 m/S 741 mmHg 78%
05:00 +14°C° 0 mm 2 m/S 741 mmHg 82%
06:00 +14°C° 0 mm 2 m/S 741 mmHg 85%
07:00 +13°C° 0 mm 3 m/S 741 mmHg 89%
08:00 +16°C° 0 mm 3 m/S 742 mmHg 82%
09:00 +17°C° 0 mm 3 m/S 742 mmHg 76%
10:00 +18°C° 0 mm 3 m/S 743 mmHg 70%
11:00 +19°C° 0 mm 3 m/S 742 mmHg 68%
12:00 +19°C° 0 mm 3 m/S 742 mmHg 66%
13:00 +20°C° 0 mm 3 m/S 742 mmHg 64%
14:00 +19°C° 0 mm 3 m/S 742 mmHg 68%
15:00 +18°C° 0 mm 3 m/S 742 mmHg 73%
16:00 +17°C° 0 mm 3 m/S 742 mmHg 78%
17:00 +17°C° 0 mm 3 m/S 742 mmHg 81%
18:00 +16°C° 0 mm 2 m/S 742 mmHg 85%
19:00 +15°C° 0 mm 2 m/S 742 mmHg 89%
20:00 +15°C° 0 mm 2 m/S 742 mmHg 88%
21:00 +15°C° 0 mm 2 m/S 742 mmHg 87%
22:00 +15°C° 0 mm 2 m/S 742 mmHg 86%
23:00 +15°C° 0 mm 2 m/S 742 mmHg 85%

3 November, Dienstag

Zeit Temperatur Niederschläge Wind Luftdruck Luftfeuchtigkeit
00:00 +15°C° 0 mm 2 m/S 741 mmHg 85%
01:00 +15°C° 0 mm 2 m/S 741 mmHg 85%
02:00 +15°C° 0 mm 2 m/S 741 mmHg 86%
03:00 +15°C° 0 mm 2 m/S 741 mmHg 87%
04:00 +13°C° 0 mm 3 m/S 741 mmHg 88%
05:00 +14°C° 0 mm 3 m/S 741 mmHg 89%
06:00 +14°C° 0 mm 3 m/S 741 mmHg 90%
07:00 +14°C° 0 mm 4 m/S 741 mmHg 91%
08:00 +15°C° 0 mm 4 m/S 741 mmHg 86%
09:00 +17°C° 0 mm 4 m/S 741 mmHg 80%
10:00 +17°C° 0 mm 5 m/S 742 mmHg 75%
11:00 +17°C° 0 mm 5 m/S 741 mmHg 73%
12:00 +17°C° 0 mm 5 m/S 741 mmHg 71%
13:00 +19°C° 0 mm 5 m/S 741 mmHg 68%
14:00 +17°C° 0 mm 5 m/S 741 mmHg 71%
15:00 +17°C° 0 mm 5 m/S 740 mmHg 74%
16:00 +16°C° 0 mm 5 m/S 740 mmHg 77%
17:00 +16°C° 0 mm 5 m/S 740 mmHg 80%
18:00 +15°C° 0 mm 5 m/S 740 mmHg 83%
19:00 +15°C° 0 mm 5 m/S 740 mmHg 87%
20:00 +15°C° 0 mm 4 m/S 740 mmHg 88%
21:00 +15°C° 0 mm 4 m/S 741 mmHg 88%
22:00 +14°C° 0 mm 4 m/S 741 mmHg 89%
23:00 +14°C° 0 mm 4 m/S 741 mmHg 90%

4 November, Mittwoch

Zeit Temperatur Niederschläge Wind Luftdruck Luftfeuchtigkeit
00:00 +14°C° 0 mm 4 m/S 740 mmHg 90%
01:00 +14°C° 0 mm 4 m/S 740 mmHg 90%
02:00 +14°C° 0 mm 4 m/S 740 mmHg 90%
03:00 +14°C° 0 mm 3 m/S 740 mmHg 90%
04:00 +14°C° 0 mm 3 m/S 740 mmHg 89%
05:00 +14°C° 0 mm 3 m/S 740 mmHg 89%
06:00 +14°C° 0 mm 3 m/S 740 mmHg 89%
07:00 +14°C° 0 mm 3 m/S 740 mmHg 89%
08:00 +16°C° 0 mm 3 m/S 740 mmHg 84%
09:00 +17°C° 0 mm 3 m/S 740 mmHg 79%
10:00 +18°C° 0 mm 3 m/S 741 mmHg 75%
11:00 +18°C° 0 mm 3 m/S 741 mmHg 73%
12:00 +19°C° 0 mm 3 m/S 740 mmHg 72%
13:00 +19°C° 0 mm 3 m/S 740 mmHg 70%
14:00 +18°C° 0 mm 3 m/S 740 mmHg 74%
15:00 +18°C° 0 mm 3 m/S 740 mmHg 77%
16:00 +17°C° 0 mm 3 m/S 740 mmHg 80%
17:00 +17°C° 0 mm 3 m/S 741 mmHg 83%
18:00 +16°C° 0 mm 3 m/S 741 mmHg 85%
19:00 +16°C° 0 mm 2 m/S 741 mmHg 88%
20:00 +16°C° 0 mm 2 m/S 742 mmHg 88%
21:00 +16°C° 0 mm 2 m/S 742 mmHg 89%
22:00 +16°C° 0 mm 2 m/S 742 mmHg 89%
23:00 +15°C° 0 mm 2 m/S 742 mmHg 90%

5 November, Donnerstag

Zeit Temperatur Niederschläge Wind Luftdruck Luftfeuchtigkeit
00:00 +15°C° 0 mm 2 m/S 742 mmHg 90%
01:00 +15°C° 0 mm 2 m/S 742 mmHg 91%
02:00 +14°C° 0 mm 3 m/S 743 mmHg 92%
03:00 +14°C° 0 mm 3 m/S 743 mmHg 92%
04:00 +14°C° 0 mm 4 m/S 743 mmHg 93%
05:00 +14°C° 0 mm 4 m/S 743 mmHg 92%
06:00 +14°C° 0 mm 4 m/S 743 mmHg 92%
07:00 +14°C° 0 mm 4 m/S 743 mmHg 91%
08:00 +15°C° 0 mm 5 m/S 744 mmHg 87%
09:00 +16°C° 0 mm 5 m/S 744 mmHg 83%
10:00 +17°C° 0 mm 5 m/S 744 mmHg 79%
11:00 +17°C° 0 mm 5 m/S 744 mmHg 78%
12:00 +17°C° 0 mm 5 m/S 744 mmHg 76%
13:00 +17°C° 0 mm 6 m/S 744 mmHg 75%
14:00 +17°C° 0 mm 6 m/S 744 mmHg 77%
15:00 +16°C° 0 mm 6 m/S 744 mmHg 79%
16:00 +16°C° 0 mm 6 m/S 744 mmHg 81%
17:00 +16°C° 0 mm 6 m/S 744 mmHg 82%
18:00 +15°C° 0 mm 7 m/S 744 mmHg 84%
19:00 +15°C° 0 mm 7 m/S 744 mmHg 86%
20:00 +15°C° 0 mm 7 m/S 744 mmHg 86%
21:00 +15°C° 0 mm 6 m/S 744 mmHg 86%
22:00 +15°C° 0 mm 6 m/S 744 mmHg 87%
23:00 +14°C° 0 mm 6 m/S 744 mmHg 87%
Mehr zeigen